Back to catalog

WILDFIRE 10

AliveSciencePO
NORAD 57766·PAYLOAD·🇺🇸 United States

Launched Sep 2, 2023 from Vandenberg Space Force Base

Loading…

Next Passes (next 24 hours)

TLE

FreshSource: Space-Track

Epoch: Sep 13, 2026, 13:47 UTC

1 57766U 23133K   26256.57460762  .00000062  00000-0  44568-4 0  9990
2 57766  80.9996 282.6250 0007515 122.0371 238.1516 13.85637649153280

Track WILDFIRE 10 in real time with AllMySat

Download on the App Store